"startDT [UTC]","vpos","CH4 [ppm]","stdev(CH4) [ppm]","CO2 [ppm]","stdev(CO2) [ppm]","H2O_reported [%]","stdev(H2O_reported)","CavityPressure [torr]","CavityTemp [C]","OutletValve","CH4_dry [ppm]","CO2_dry [ppm]","DasTemp [C]","EtalonTemp [C]","WarmBoxTemp [C]","MPVPosition","T_ECpre [C]","T_EC1 [C]","T_EC2 [C]","p_inlet [hPa]","p_in [hPa]","p_out [hPa]","T_inlet [C]","RH_inlet [%]","dwpt_inlet [C]","T_vent [C]","RH_vent [%]","dwpt_vent [C]","flow_vent [l min-1]","flow_inlet [l min-1]","dwpt_sample [C]","T_room [C]"
2016-02-04 00:00:00,0.0,1.96064,0.00031,407.867,0.038,0.0317,0.0018,139.998,45.001,31419.70251,1.96127,408.024,32.231,45.071,45.000,0.00,0.08,-272.75,-272.80,-3,517,-942,18.5,1.2,-37.2,18.7,1.2,-36.5,5.73,2.03,-20.7,24.9
2016-02-04 00:01:00,0.0,1.96069,0.00030,407.894,0.037,0.0321,0.0017,139.998,45.000,31420.16264,1.96130,408.051,32.228,45.071,45.000,0.00,0.08,-272.75,-272.80,-3,518,-942,18.6,1.2,-37.1,18.7,1.3,-36.3,5.73,1.91,-20.7,24.9
2016-02-04 00:02:00,0.0,1.96084,0.00036,407.890,0.021,0.0326,0.0020,139.997,45.000,31419.68409,1.96145,408.049,32.224,45.071,45.000,0.00,0.08,-272.75,-272.81,-4,517,-942,18.5,1.2,-37.0,18.7,1.3,-36.1,5.73,1.77,-20.7,24.9
2016-02-04 00:03:00,0.0,1.96058,0.00046,407.877,0.029,0.0312,0.0009,139.999,45.000,31420.07856,1.96120,408.031,32.224,45.071,45.000,0.00,0.08,-272.75,-272.81,-3,518,-942,18.6,1.2,-37.1,18.7,1.3,-36.2,5.73,2.03,-20.7,24.9
2016-02-04 00:04:00,0.0,1.96028,0.00037,407.867,0.028,0.0319,0.0013,140.001,45.000,31419.77417,1.96091,408.023,32.202,45.071,45.000,0.00,0.08,-272.75,-272.79,-4,518,-942,18.6,1.2,-37.1,18.7,1.3,-36.2,5.73,1.90,-20.7,24.9
2016-02-04 00:05:00,0.0,1.96049,0.00026,407.882,0.030,0.0321,0.0019,139.999,44.999,31415.94134,1.96108,408.038,32.190,45.071,45.000,0.00,0.08,-272.74,-272.80,-3,517,-942,18.6,1.2,-37.0,18.7,1.3,-36.1,5.73,1.76,-20.7,24.9
2016-02-04 00:06:00,0.0,1.96080,0.00023,407.890,0.029,0.0338,0.0018,139.998,44.999,31414.72265,1.96145,408.057,32.188,45.071,45.000,0.00,0.08,-272.76,-272.81,-3,518,-942,18.5,1.2,-36.9,18.7,1.3,-36.2,5.73,2.02,-20.7,24.9
2016-02-04 00:07:00,0.0,1.96118,0.00032,407.884,0.039,0.0332,0.0014,140.000,45.000,31414.18239,1.96179,408.047,32.193,45.071,45.000,0.00,0.08,-272.76,-272.80,-4,517,-942,18.5,1.2,-36.6,18.7,1.3,-36.0,5.73,1.89,-20.7,24.9
2016-02-04 00:08:00,0.0,1.96089,0.00033,407.872,0.030,0.0332,0.0017,139.997,45.000,31415.73333,1.96156,408.034,32.192,45.071,45.000,0.00,0.08,-272.75,-272.81,-3,518,-942,18.5,1.2,-36.7,18.7,1.3,-35.9,5.73,1.76,-20.7,24.9
2016-02-04 00:09:00,0.0,1.96097,0.00044,407.872,0.033,0.0330,0.0016,140.001,45.000,31416.70586,1.96157,408.032,32.208,45.071,45.000,0.00,0.08,-272.76,-272.81,-4,518,-942,18.5,1.2,-36.6,18.7,1.3,-35.9,5.73,2.02,-20.7,24.9
2016-02-04 00:10:00,0.0,1.96087,0.00043,407.861,0.031,0.0332,0.0017,139.998,45.000,31415.10006,1.96154,408.025,32.245,45.071,45.000,0.00,0.08,-272.75,-272.80,-3,517,-942,18.6,1.3,-36.4,18.7,1.3,-35.8,5.73,1.89,-20.7,24.9
2016-02-04 00:11:00,0.0,1.96088,0.00032,407.837,0.032,0.0336,0.0018,139.998,45.000,31415.66218,1.96150,408.002,32.246,45.071,45.000,0.00,0.08,-272.75,-272.80,-3,518,-942,18.5,1.3,-36.4,18.7,1.3,-35.7,5.73,1.76,-20.7,24.9
2016-02-04 00:12:00,0.0,1.96059,0.00056,407.795,0.042,0.0338,0.0021,139.998,45.000,31416.10891,1.96130,407.962,32.235,45.071,45.000,0.00,0.08,-272.76,-272.81,-4,517,-942,18.5,1.3,-36.4,18.7,1.3,-35.7,5.73,2.02,-20.7,24.9
2016-02-04 00:13:00,0.0,1.96032,0.00034,407.760,0.029,0.0343,0.0016,139.999,45.000,31416.55306,1.96096,407.926,32.198,45.071,45.000,0.00,0.08,-272.76,-272.80,-3,518,-942,18.5,1.3,-36.4,18.7,1.4,-35.5,5.73,1.89,-20.7,24.9
2016-02-04 00:14:00,0.0,1.96020,0.00037,407.752,0.029,0.0344,0.0012,140.000,45.000,31417.10540,1.96088,407.921,32.206,45.071,45.000,0.00,0.08,-272.75,-272.81,-4,518,-942,18.5,1.3,-36.4,18.7,1.4,-35.5,5.73,1.76,-20.7,24.9
2016-02-04 00:15:00,0.0,1.96028,0.00042,407.754,0.031,0.0327,0.0018,140.000,45.000,31416.37433,1.96089,407.915,32.193,45.071,45.000,0.00,0.08,-272.76,-272.81,-3,517,-942,18.6,1.3,-36.4,18.7,1.4,-35.6,5.73,2.02,-20.7,24.9
2016-02-04 00:16:00,0.0,1.96029,0.00036,407.745,0.040,0.0332,0.0017,139.999,45.000,31415.88178,1.96095,407.907,32.223,45.071,45.000,0.00,0.08,-272.75,-272.80,-3,518,-942,18.6,1.3,-36.5,18.7,1.3,-35.8,5.73,1.89,-20.7,24.9
2016-02-04 00:17:00,0.0,1.96052,0.00038,407.764,0.036,0.0331,0.0020,139.998,45.000,31414.42197,1.96114,407.927,32.234,45.071,45.000,0.00,0.08,-272.74,-272.80,-4,518,-942,18.6,1.2,-36.6,18.7,1.3,-35.7,5.73,1.76,-20.7,24.9
2016-02-04 00:18:00,0.0,1.96101,0.00032,407.805,0.025,0.0334,0.0017,139.999,45.000,31414.49195,1.96165,407.967,32.234,45.071,45.000,0.00,0.08,-272.75,-272.80,-3,518,-942,18.6,1.2,-36.6,18.7,1.3,-35.8,5.73,2.02,-20.7,24.9
2016-02-04 00:19:00,0.0,1.96137,0.00040,407.821,0.033,0.0337,0.0021,140.000,45.000,31414.19957,1.96199,407.986,32.225,45.071,45.000,0.00,0.08,-272.76,-272.80,-4,518,-942,18.6,1.2,-36.5,18.7,1.3,-35.9,5.73,1.88,-20.7,24.9
2016-02-04 00:20:00,0.0,1.96140,0.00037,407.853,0.029,0.0341,0.0009,140.000,45.000,31413.16300,1.96208,408.020,32.206,45.071,45.000,0.00,0.08,-272.75,-272.80,-4,517,-942,18.5,1.2,-36.7,18.7,1.3,-35.9,5.73,1.76,-20.7,24.9
2016-02-04 00:21:00,0.0,1.96142,0.00037,407.840,0.027,0.0333,0.0022,139.997,45.000,31412.86628,1.96207,408.002,32.188,45.071,45.000,0.00,0.08,-272.75,-272.81,-3,518,-942,18.5,1.2,-36.6,18.7,1.3,-35.9,5.73,2.01,-20.7,24.9
2016-02-04 00:22:00,0.0,1.96113,0.00034,407.855,0.034,0.0335,0.0015,139.997,45.000,31411.91162,1.96177,408.019,32.187,45.071,45.000,0.00,0.08,-272.76,-272.80,-4,518,-942,18.5,1.2,-36.6,18.7,1.3,-36.0,5.73,1.88,-20.7,24.9
2016-02-04 00:23:00,0.0,1.96082,0.00046,407.857,0.045,0.0328,0.0016,139.996,45.000,31411.69849,1.96148,408.018,32.188,45.071,45.000,0.00,0.08,-272.75,-272.81,-3,517,-942,18.5,1.2,-36.7,18.7,1.3,-36.0,5.73,1.76,-20.7,24.9
2016-02-04 00:24:00,0.0,1.96063,0.00030,407.864,0.031,0.0335,0.0018,139.998,45.000,31410.46827,1.96127,408.029,32.191,45.071,45.000,0.00,0.08,-272.76,-272.80,-4,518,-942,18.5,1.2,-36.7,18.7,1.3,-35.9,5.73,2.01,-20.7,24.9
2016-02-04 00:25:00,0.0,1.96067,0.00036,407.874,0.032,0.0336,0.0019,140.001,45.000,31410.59775,1.96132,408.039,32.213,45.071,45.000,0.00,0.08,-272.75,-272.79,-4,517,-942,18.5,1.2,-36.7,18.7,1.3,-35.9,5.73,1.89,-20.7,24.9
2016-02-04 00:26:00,0.0,1.96080,0.00032,407.886,0.030,0.0336,0.0015,140.001,45.000,31409.85299,1.96142,408.049,32.237,45.071,45.000,0.00,0.08,-272.76,-272.80,-3,518,-942,18.5,1.3,-36.4,18.7,1.3,-35.7,5.73,1.75,-20.7,24.9
2016-02-04 00:27:00,0.0,1.96065,0.00048,407.864,0.034,0.0340,0.0017,140.000,45.000,31411.50594,1.96134,408.032,32.244,45.071,45.000,0.00,0.08,-272.75,-272.80,-4,518,-942,18.6,1.3,-36.4,18.7,1.3,-35.7,5.73,2.01,-20.7,24.9
2016-02-04 00:28:00,0.0,1.96073,0.00035,407.861,0.031,0.0345,0.0016,139.997,45.000,31410.43426,1.96139,408.031,32.250,45.071,45.000,0.00,0.08,-272.76,-272.80,-3,517,-942,18.6,1.3,-36.2,18.7,1.4,-35.5,5.73,1.89,-20.7,24.9
2016-02-04 00:29:00,0.0,1.96076,0.00023,407.887,0.038,0.0349,0.0013,139.998,45.000,31408.66040,1.96142,408.055,32.250,45.070,45.000,0.00,0.08,-272.75,-272.81,-3,518,-942,18.5,1.3,-36.1,18.7,1.4,-35.5,5.73,1.75,-20.7,24.9
2016-02-04 00:30:00,0.0,1.96086,0.00034,407.876,0.036,0.0346,0.0018,140.000,45.000,31409.28760,1.96153,408.046,32.250,45.070,45.000,0.00,0.08,-272.75,-272.80,-4,517,-942,18.5,1.3,-36.0,18.7,1.4,-35.3,5.73,2.01,-20.7,24.9
2016-02-04 00:31:00,0.0,1.96086,0.00038,407.850,0.036,0.0356,0.0018,139.999,45.000,31411.32696,1.96155,408.025,32.251,45.070,45.000,0.00,0.08,-272.76,-272.80,-3,518,-942,18.5,1.3,-36.2,18.7,1.4,-35.3,5.73,1.89,-20.7,24.9
2016-02-04 00:32:00,0.0,1.96096,0.00041,407.863,0.041,0.0338,0.0027,139.998,45.000,31410.88240,1.96160,408.028,32.251,45.070,45.000,0.00,0.08,-272.74,-272.80,-4,518,-942,18.5,1.3,-36.2,18.7,1.4,-35.5,5.73,1.75,-20.7,24.9
2016-02-04 00:33:00,0.0,1.96099,0.00040,407.851,0.027,0.0339,0.0011,140.000,45.000,31410.79354,1.96163,408.017,32.247,45.071,45.000,0.00,0.08,-272.75,-272.80,-3,517,-942,18.5,1.3,-36.5,18.7,1.4,-35.6,5.73,2.01,-20.7,24.9
2016-02-04 00:34:00,0.0,1.96091,0.00044,407.871,0.028,0.0341,0.0012,139.998,45.000,31409.70143,1.96158,408.037,32.202,45.071,45.000,0.00,0.08,-272.75,-272.80,-3,518,-942,18.5,1.3,-36.4,18.7,1.3,-35.7,5.73,1.89,-20.7,24.9
2016-02-04 00:35:00,0.0,1.96078,0.00046,407.885,0.041,0.0343,0.0016,139.998,45.000,31409.94925,1.96145,408.054,32.199,45.071,45.000,0.00,0.08,-272.74,-272.81,-4,517,-942,18.5,1.3,-36.5,18.7,1.3,-35.7,5.73,1.75,-20.7,24.9
2016-02-04 00:36:00,0.0,1.96105,0.00039,407.853,0.026,0.0340,0.0014,139.997,45.000,31408.25306,1.96169,408.019,32.189,45.071,45.000,0.00,0.08,-272.76,-272.81,-3,518,-942,18.5,1.3,-36.4,18.6,1.4,-35.6,5.73,2.01,-20.7,24.9
2016-02-04 00:37:00,0.0,1.96125,0.00036,407.865,0.035,0.0341,0.0018,139.998,45.000,31407.66560,1.96190,408.031,32.189,45.071,45.000,0.00,0.08,-272.75,-272.80,-4,518,-942,18.5,1.3,-36.4,18.7,1.4,-35.6,5.73,1.89,-20.7,24.9
2016-02-04 00:38:00,0.0,1.96116,0.00028,407.859,0.030,0.0334,0.0014,139.998,45.000,31409.12911,1.96179,408.023,32.192,45.071,45.000,0.00,0.08,-272.75,-272.80,-3,517,-942,18.6,1.3,-36.4,18.7,1.3,-35.7,5.73,1.75,-20.7,24.9
2016-02-04 00:39:00,0.0,1.96093,0.00036,407.859,0.027,0.0335,0.0015,139.997,45.000,31409.68636,1.96161,408.022,32.209,45.071,45.000,0.00,0.08,-272.76,-272.81,-3,518,-942,18.5,1.2,-36.7,18.7,1.3,-35.9,5.73,2.01,-20.7,24.8
2016-02-04 00:40:00,0.0,1.96109,0.00031,407.844,0.028,0.0324,0.0013,139.998,45.000,31409.32234,1.96170,408.004,32.208,45.071,45.000,0.00,0.08,-272.76,-272.81,-4,517,-942,18.6,1.2,-36.9,18.7,1.3,-36.0,5.73,1.90,-20.7,24.8
2016-02-04 00:41:00,0.0,1.96094,0.00043,407.853,0.032,0.0329,0.0016,139.999,45.000,31408.97574,1.96159,408.013,32.225,45.071,45.000,0.00,0.08,-272.74,-272.80,-3,517,-942,18.6,1.2,-37.1,18.7,1.3,-36.1,5.73,1.75,-20.7,24.9
2016-02-04 00:42:00,0.0,1.96094,0.00041,407.851,0.028,0.0310,0.0018,140.001,45.000,31409.35305,1.96150,408.005,32.229,45.071,45.000,0.00,0.08,-272.76,-272.80,-4,518,-942,18.6,1.2,-37.2,18.7,1.3,-36.3,5.73,2.01,-20.7,24.8
2016-02-04 00:43:00,0.0,1.96080,0.00049,407.837,0.036,0.0312,0.0020,140.000,45.000,31410.01997,1.96145,407.989,32.248,45.071,45.000,0.00,0.08,-272.76,-272.80,-4,517,-942,18.5,1.1,-37.4,18.6,1.2,-36.6,5.73,1.90,-20.7,24.8
2016-02-04 00:44:00,0.0,1.96029,0.00041,407.840,0.034,0.0299,0.0018,139.998,45.000,31410.10733,1.96085,407.985,32.249,45.070,45.000,0.00,0.08,-272.74,-272.80,-3,517,-942,18.6,1.1,-37.6,18.7,1.2,-36.7,5.73,1.75,-20.7,24.9
2016-02-04 00:45:00,0.0,1.96089,0.00035,407.850,0.036,0.0292,0.0019,139.996,45.000,31408.67464,1.96148,407.993,32.250,45.070,45.000,0.00,0.08,-272.75,-272.81,-4,517,-942,18.6,1.1,-37.8,18.7,1.2,-36.9,5.73,2.01,-20.7,24.9
2016-02-04 00:46:00,0.0,1.96074,0.00030,407.857,0.033,0.0292,0.0018,139.997,45.000,31408.27214,1.96127,408.003,32.249,45.071,45.000,0.00,0.08,-272.76,-272.81,-3,517,-942,18.5,1.1,-38.1,18.6,1.2,-37.1,5.73,1.89,-20.7,24.9
2016-02-04 00:47:00,0.0,1.96076,0.00031,407.833,0.036,0.0296,0.0020,140.000,45.000,31406.86811,1.96132,407.977,32.225,45.071,45.000,0.00,0.08,-272.75,-272.81,-4,518,-942,18.5,1.1,-38.1,18.7,1.2,-37.2,5.73,1.75,-20.7,24.9
2016-02-04 00:48:00,0.0,1.96050,0.00037,407.860,0.039,0.0289,0.0018,139.998,45.000,31406.94593,1.96110,408.001,32.198,45.071,45.000,0.00,0.08,-272.75,-272.81,-4,517,-942,18.5,1.1,-38.1,18.7,1.1,-37.3,5.73,2.02,-20.7,24.9
2016-02-04 00:49:00,0.0,1.96055,0.00054,407.840,0.043,0.0297,0.0019,139.996,45.000,31405.65768,1.96108,407.987,32.189,45.071,45.000,0.00,0.08,-272.76,-272.81,-3,517,-942,18.6,1.1,-37.8,18.7,1.2,-37.1,5.73,1.88,-20.7,24.9
2016-02-04 00:50:00,0.0,1.96076,0.00074,407.844,0.032,0.0300,0.0018,140.000,45.000,31407.03387,1.96137,407.991,32.188,45.071,45.000,0.00,0.08,-272.76,-272.81,-4,517,-942,18.5,1.1,-37.8,18.7,1.2,-37.0,5.73,1.76,-20.7,24.8
2016-02-04 00:51:00,0.0,1.96041,0.00033,407.841,0.034,0.0295,0.0017,139.997,45.000,31406.95580,1.96097,407.984,32.189,45.071,45.000,0.00,0.08,-272.75,-272.80,-3,517,-942,18.5,1.1,-37.9,18.7,1.2,-37.0,5.73,2.02,-20.7,24.8
2016-02-04 00:52:00,0.0,1.96049,0.00041,407.846,0.038,0.0292,0.0015,139.999,45.000,31406.30217,1.96105,407.989,32.192,45.071,45.000,0.00,0.08,-272.76,-272.80,-3,518,-942,18.5,1.1,-38.0,18.7,1.2,-37.1,5.73,1.87,-20.7,24.9
2016-02-04 00:53:00,0.0,1.96064,0.00041,407.844,0.029,0.0297,0.0021,139.996,45.000,31403.28170,1.96122,407.989,32.195,45.071,45.000,0.00,0.08,-272.75,-272.81,-4,517,-942,18.5,1.1,-38.0,18.6,1.2,-37.1,5.73,1.76,-20.7,24.8
2016-02-04 00:54:00,0.0,1.96057,0.00028,407.866,0.034,0.0295,0.0017,139.997,45.000,31403.07409,1.96112,408.009,32.192,45.071,45.000,0.00,0.08,-272.75,-272.80,-3,518,-942,18.5,1.1,-37.9,18.7,1.2,-37.0,5.73,2.02,-20.7,24.8
2016-02-04 00:55:00,0.0,1.96032,0.00035,407.854,0.040,0.0297,0.0017,139.998,45.000,31404.16992,1.96091,408.002,32.195,45.071,45.000,0.00,0.08,-272.75,-272.79,-4,517,-942,18.5,1.1,-37.8,18.7,1.2,-37.0,5.73,1.86,-20.7,24.9
2016-02-04 00:56:00,0.0,1.96005,0.00040,407.865,0.027,0.0298,0.0023,140.000,45.000,31405.01589,1.96063,408.008,32.188,45.071,45.000,0.00,0.08,-272.75,-272.81,-3,517,-942,18.5,1.1,-37.8,18.7,1.2,-37.1,5.73,1.77,-20.7,24.9
2016-02-04 00:57:00,0.0,1.95998,0.00032,407.843,0.032,0.0300,0.0026,140.000,45.000,31404.55031,1.96054,407.991,32.189,45.071,45.000,0.00,0.08,-272.76,-272.81,-3,517,-942,18.5,1.1,-37.8,18.7,1.2,-37.1,5.73,2.02,-20.7,24.8
2016-02-04 00:58:00,0.0,1.95995,0.00038,407.846,0.030,0.0301,0.0020,140.001,45.000,31403.53188,1.96055,407.994,32.188,45.071,45.000,0.00,0.08,-272.74,-272.80,-4,517,-942,18.5,1.1,-37.9,18.6,1.2,-36.9,5.73,1.86,-20.7,24.9
2016-02-04 00:59:00,0.0,1.95969,0.00035,407.852,0.031,0.0298,0.0015,139.998,45.000,31403.87482,1.96028,407.998,32.188,45.071,45.000,0.00,0.08,-272.75,-272.81,-3,518,-942,18.5,1.1,-37.7,18.6,1.2,-36.9,5.73,1.78,-20.7,24.9
2016-02-04 01:00:00,0.0,1.96002,0.00031,407.844,0.040,0.0296,0.0015,140.000,45.000,31403.33713,1.96056,407.988,32.171,45.071,45.000,0.00,0.08,-272.75,-272.81,-4,517,-942,18.5,1.1,-37.8,18.7,1.2,-36.9,5.73,2.03,-20.7,24.9
2016-02-04 01:01:00,0.0,1.95987,0.00040,407.862,0.020,0.0303,0.0019,140.002,45.000,31404.15769,1.96046,408.012,32.163,45.071,45.000,0.00,0.08,-272.75,-272.79,-3,517,-942,18.5,1.1,-37.7,18.7,1.2,-36.8,5.73,1.85,-20.7,24.9
2016-02-04 01:02:00,0.0,1.95977,0.00033,407.828,0.033,0.0316,0.0016,140.001,45.000,31404.72782,1.96039,407.982,32.153,45.071,45.000,0.00,0.08,-272.75,-272.81,-3,518,-942,18.5,1.2,-37.3,18.7,1.2,-36.7,5.73,1.78,-20.7,24.9
2016-02-04 01:03:00,0.0,1.95990,0.00042,407.837,0.022,0.0310,0.0017,139.999,45.000,31403.19614,1.96049,407.990,32.138,45.071,45.000,0.00,0.08,-272.76,-272.81,-4,517,-942,18.5,1.1,-37.4,18.7,1.2,-36.6,5.73,2.03,-20.7,24.9
2016-02-04 01:04:00,0.0,1.95998,0.00035,407.839,0.033,0.0287,0.0018,139.998,45.000,31402.65016,1.96050,407.979,32.154,45.071,45.000,0.00,0.08,-272.75,-272.80,-3,517,-942,18.5,1.1,-37.8,18.7,1.2,-36.8,5.73,1.84,-20.7,24.9
2016-02-04 01:05:00,0.0,1.96037,0.00030,407.831,0.036,0.0279,0.0018,140.002,45.000,31402.14612,1.96091,407.968,32.165,45.071,45.000,0.00,0.08,-272.74,-272.81,-4,517,-942,18.5,1.0,-38.3,18.7,1.2,-37.2,5.73,1.78,-20.7,24.9
2016-02-04 01:06:00,0.0,1.96029,0.00032,407.841,0.038,0.0288,0.0011,140.000,45.000,31400.79023,1.96083,407.983,32.143,45.071,45.000,0.00,0.08,-272.76,-272.81,-3,517,-942,18.5,1.0,-38.3,18.7,1.1,-37.5,5.73,2.03,-20.7,24.8
2016-02-04 01:07:00,0.0,1.96008,0.00033,407.859,0.030,0.0287,0.0020,140.001,45.000,31402.45656,1.96065,407.999,32.136,45.071,45.000,0.00,0.08,-272.75,-272.80,-3,518,-942,18.5,1.0,-38.3,18.6,1.1,-37.5,5.73,1.83,-20.7,24.8
2016-02-04 01:08:00,0.0,1.96016,0.00037,407.846,0.051,0.0301,0.0018,140.000,45.000,31402.06394,1.96074,407.994,32.148,45.071,45.000,0.00,0.08,-272.75,-272.79,-4,517,-942,18.5,1.1,-37.9,18.7,1.2,-37.2,5.73,1.79,-20.7,24.8
2016-02-04 01:09:00,0.0,1.96019,0.00051,407.857,0.023,0.0312,0.0013,140.000,45.000,31402.65749,1.96081,408.010,32.163,45.071,45.000,0.00,0.08,-272.74,-272.80,-3,517,-942,18.5,1.1,-37.4,18.7,1.2,-36.8,5.73,2.03,-20.8,24.8
2016-02-04 01:10:00,0.0,1.95979,0.00032,407.835,0.030,0.0310,0.0019,139.998,45.000,31402.41205,1.96041,407.987,32.130,45.071,45.000,0.00,0.08,-272.76,-272.81,-4,517,-942,18.5,1.1,-37.4,18.7,1.2,-36.6,5.73,1.82,-20.8,24.9
2016-02-04 01:11:00,0.0,1.95971,0.00026,407.837,0.031,0.0319,0.0017,139.999,44.999,31403.44777,1.96030,407.993,32.133,45.071,45.000,0.00,0.08,-272.75,-272.80,-3,517,-942,18.5,1.2,-37.1,18.7,1.2,-36.5,5.73,1.80,-20.7,24.8
2016-02-04 01:12:00,0.0,1.95987,0.00031,407.826,0.027,0.0328,0.0013,140.002,45.000,31401.91382,1.96048,407.987,32.127,45.071,45.000,0.00,0.08,-272.75,-272.81,-3,517,-942,18.5,1.2,-36.9,18.6,1.3,-36.3,5.73,2.03,-20.8,24.8
2016-02-04 01:13:00,0.0,1.95995,0.00035,407.852,0.044,0.0331,0.0014,139.999,45.000,31401.41906,1.96058,408.013,32.126,45.071,45.000,0.00,0.08,-272.75,-272.81,-4,517,-942,18.5,1.2,-36.7,18.7,1.3,-36.0,5.73,1.81,-20.8,24.8
2016-02-04 01:14:00,0.0,1.96017,0.00037,407.850,0.038,0.0323,0.0017,139.999,45.000,31403.60360,1.96078,408.008,32.124,45.071,45.000,0.00,0.08,-272.75,-272.80,-3,517,-942,18.5,1.2,-36.9,18.6,1.3,-36.0,5.73,1.81,-20.8,24.8
2016-02-04 01:15:00,0.0,1.95997,0.00047,407.846,0.036,0.0315,0.0018,139.999,45.000,31402.09266,1.96059,408.000,32.123,45.071,45.000,0.00,0.08,-272.75,-272.80,-4,517,-942,18.5,1.2,-37.1,18.7,1.3,-36.3,5.73,2.03,-20.7,24.8
2016-02-04 01:16:00,0.0,1.96013,0.00034,407.840,0.040,0.0322,0.0017,139.999,45.000,31400.01436,1.96076,407.998,32.106,45.071,45.000,0.00,0.08,-272.75,-272.81,-3,517,-942,18.5,1.2,-37.1,18.7,1.3,-36.2,5.73,1.80,-20.8,24.8
2016-02-04 01:17:00,0.0,1.96026,0.00045,407.836,0.036,0.0329,0.0015,140.001,45.000,31400.22803,1.96091,407.998,32.099,45.071,45.000,0.00,0.08,-272.76,-272.81,-3,517,-942,18.5,1.2,-37.1,18.7,1.3,-36.1,5.73,1.82,-20.7,24.8
2016-02-04 01:18:00,0.0,1.95998,0.00029,407.814,0.036,0.0313,0.0022,139.999,45.000,31399.55953,1.96057,407.966,32.119,45.071,45.000,0.00,0.08,-272.75,-272.80,-4,517,-942,18.5,1.2,-37.1,18.7,1.3,-36.1,5.73,2.03,-20.7,24.8
2016-02-04 01:19:00,0.0,1.96024,0.00056,407.851,0.031,0.0318,0.0017,140.000,45.000,31400.77693,1.96087,408.007,32.124,45.071,45.000,0.00,0.08,-272.75,-272.80,-3,517,-942,18.5,1.2,-37.0,18.7,1.3,-36.2,5.73,1.79,-20.8,24.8
2016-02-04 01:20:00,0.0,1.96029,0.00030,407.827,0.028,0.0327,0.0016,140.000,45.000,31400.97249,1.96089,407.988,32.121,45.071,45.000,0.00,0.08,-272.76,-272.81,-4,517,-942,18.5,1.2,-37.0,18.7,1.3,-36.2,5.73,1.84,-20.8,24.8
2016-02-04 01:21:00,0.0,1.96000,0.00033,407.836,0.039,0.0324,0.0021,139.997,45.000,31398.94107,1.96064,407.996,32.125,45.071,45.000,0.00,0.08,-272.76,-272.80,-3,517,-942,18.5,1.2,-36.9,18.7,1.3,-36.1,5.73,2.03,-20.8,24.8
2016-02-04 01:22:00,0.0,1.96026,0.00046,407.844,0.027,0.0320,0.0015,139.997,45.000,31396.71085,1.96088,408.000,32.128,45.071,45.000,0.00,0.08,-272.75,-272.79,-3,517,-942,18.5,1.2,-36.8,18.7,1.3,-36.1,5.73,1.78,-20.8,24.8
2016-02-04 01:23:00,0.0,1.95991,0.00037,407.841,0.035,0.0325,0.0014,140.001,45.001,31400.64919,1.96055,408.000,32.124,45.071,45.000,0.00,0.08,-272.75,-272.81,-4,517,-942,18.5,1.2,-36.9,18.7,1.3,-36.1,5.73,1.85,-20.8,24.8
2016-02-04 01:24:00,0.0,1.95963,0.00045,407.831,0.033,0.0329,0.0028,140.000,45.001,31401.07288,1.96027,407.992,32.095,45.071,45.000,0.00,0.08,-272.76,-272.81,-3,517,-942,18.5,1.2,-36.8,18.7,1.3,-36.0,5.73,2.02,-20.7,24.8
2016-02-04 01:25:00,0.0,1.96007,0.00023,407.841,0.033,0.0328,0.0014,140.000,45.001,31402.24332,1.96068,408.000,32.102,45.071,45.000,0.00,0.08,-272.75,-272.80,-4,517,-942,18.5,1.2,-36.9,18.6,1.3,-36.0,5.73,1.77,-20.8,24.8
2016-02-04 01:26:00,0.0,1.95998,0.00035,407.842,0.042,0.0325,0.0019,139.998,45.000,31402.40148,1.96063,408.002,32.125,45.071,45.000,0.00,0.08,-272.75,-272.81,-4,517,-942,18.5,1.2,-36.6,18.6,1.3,-36.0,5.73,1.86,-20.8,24.8
2016-02-04 01:27:00,0.0,1.96016,0.00045,407.829,0.028,0.0334,0.0012,139.998,45.000,31403.01993,1.96079,407.992,32.120,45.071,45.000,0.00,0.08,-272.76,-272.81,-3,517,-942,18.5,1.2,-36.7,18.7,1.3,-35.9,5.73,2.02,-20.8,24.8
2016-02-04 01:28:00,0.0,1.96028,0.00038,407.833,0.038,0.0328,0.0018,140.000,45.000,31402.08546,1.96090,407.994,32.125,45.071,45.000,0.00,0.08,-272.75,-272.80,-4,517,-942,18.5,1.2,-36.6,18.6,1.3,-35.9,5.73,1.76,-20.8,24.8
2016-02-04 01:29:00,0.0,1.95992,0.00034,407.828,0.029,0.0342,0.0013,139.996,45.000,31401.36792,1.96060,407.996,32.118,45.071,45.000,0.00,0.08,-272.75,-272.81,-3,517,-942,18.5,1.3,-36.4,18.7,1.3,-35.7,5.73,1.85,-20.8,24.8
2016-02-04 01:30:00,0.0,1.95979,0.00028,407.796,0.028,0.0337,0.0017,140.000,45.000,31404.48795,1.96045,407.961,32.118,45.071,45.000,0.00,0.08,-272.76,-272.81,-4,517,-942,18.5,1.3,-36.5,18.7,1.3,-35.8,5.73,2.00,-20.8,24.8
2016-02-04 01:31:00,0.0,1.95968,0.00026,407.807,0.045,0.0347,0.0015,139.996,45.000,31403.35878,1.96035,407.976,32.118,45.071,45.000,0.00,0.08,-272.75,-272.81,-4,517,-942,18.5,1.3,-36.3,18.7,1.4,-35.6,5.73,1.76,-20.8,24.8
2016-02-04 01:32:00,0.0,1.95988,0.00026,407.800,0.035,0.0347,0.0019,139.999,45.000,31402.68807,1.96054,407.970,32.125,45.071,45.000,0.00,0.08,-272.75,-272.81,-3,517,-942,18.5,1.3,-36.2,18.7,1.4,-35.5,5.73,1.87,-20.8,24.8
2016-02-04 01:33:00,0.0,1.95993,0.00036,407.808,0.036,0.0351,0.0022,140.000,44.999,31403.91878,1.96060,407.980,32.120,45.071,45.000,0.00,0.08,-272.76,-272.80,-4,517,-942,18.5,1.3,-36.0,18.7,1.4,-35.3,5.73,2.01,-20.8,24.8
2016-02-04 01:34:00,0.0,1.95949,0.00034,407.810,0.034,0.0360,0.0019,139.999,44.996,31400.19573,1.96019,407.986,32.071,45.071,45.000,0.00,0.08,-272.75,-272.80,-3,517,-942,18.5,1.3,-35.8,18.6,1.4,-35.3,5.73,1.75,-20.8,24.8
2016-02-04 01:35:00,0.0,1.95974,0.00041,407.820,0.033,0.0362,0.0018,139.997,44.997,31396.41604,1.96045,407.997,32.063,45.071,45.000,0.00,0.08,-272.75,-272.80,-3,517,-942,18.5,1.3,-35.8,18.7,1.4,-35.2,5.73,1.89,-20.8,24.8
2016-02-04 01:36:00,0.0,1.95966,0.00045,407.801,0.032,0.0356,0.0016,140.002,45.010,31412.48772,1.96035,407.976,32.053,45.070,44.999,0.00,0.08,-272.76,-272.81,-4,517,-942,18.5,1.3,-35.8,18.6,1.4,-35.2,5.73,2.01,-20.8,24.8
2016-02-04 01:37:00,0.0,1.95919,0.00040,407.714,0.030,0.0358,0.0020,140.003,45.033,31452.18821,1.95989,407.891,32.051,45.070,44.999,0.00,0.08,-272.75,-272.81,-3,517,-942,18.5,1.3,-35.9,18.7,1.4,-35.1,5.73,1.75,-20.8,24.8
2016-02-04 01:38:00,0.0,1.95886,0.00036,407.665,0.048,0.0336,0.0013,140.002,45.061,31504.42811,1.95954,407.830,32.063,45.070,45.000,0.00,0.08,-272.75,-272.81,-4,517,-942,18.5,1.3,-36.3,18.7,1.4,-35.5,5.73,1.90,-20.8,24.8
2016-02-04 01:39:00,0.0,1.95869,0.00031,407.623,0.030,0.0328,0.0011,140.001,45.082,31545.78189,1.95929,407.783,32.066,45.071,45.001,0.00,0.08,-272.75,-272.80,-3,517,-942,18.5,1.2,-36.7,18.6,1.3,-35.7,5.73,2.02,-20.8,24.8
2016-02-04 01:40:00,0.0,1.95850,0.00050,407.632,0.031,0.0329,0.0015,140.000,45.077,31577.14179,1.95914,407.793,32.109,45.072,45.001,0.00,0.08,-272.75,-272.81,-3,517,-942,18.5,1.2,-36.7,18.7,1.3,-35.9,5.73,1.75,-20.8,24.8
2016-02-04 01:41:00,0.0,1.95918,0.00046,407.677,0.022,0.0328,0.0017,139.998,45.057,31593.71985,1.95980,407.836,32.125,45.072,45.001,0.00,0.08,-272.75,-272.80,-4,517,-942,18.5,1.2,-36.7,18.6,1.3,-35.9,5.73,1.90,-20.8,24.8
2016-02-04 01:42:00,0.0,1.95934,0.00028,407.712,0.034,0.0337,0.0021,139.999,45.032,31602.43764,1.96000,407.877,32.134,45.072,45.001,0.00,0.08,-272.75,-272.80,-3,517,-942,18.5,1.3,-36.5,18.7,1.3,-35.8,5.73,2.00,-20.8,24.8
2016-02-04 01:43:00,0.0,1.95972,0.00037,407.809,0.044,0.0335,0.0019,140.000,45.000,31600.40669,1.96033,407.971,32.142,45.072,45.001,0.00,0.08,-272.76,-272.81,-4,517,-942,18.5,1.3,-36.4,18.6,1.3,-35.7,5.73,1.75,-20.8,24.8
2016-02-04 01:44:00,0.0,1.95996,0.00042,407.847,0.018,0.0333,0.0013,140.002,44.981,31589.53007,1.96062,408.010,32.185,45.072,45.001,0.00,0.08,-272.76,-272.81,-3,517,-942,18.5,1.3,-36.2,18.6,1.4,-35.6,5.73,1.93,-20.8,24.8
2016-02-04 01:45:00,0.0,1.96021,0.00038,407.862,0.022,0.0357,0.0015,139.999,44.972,31575.85500,1.96088,408.038,32.189,45.071,45.000,0.00,0.08,-272.75,-272.80,-3,517,-942,18.5,1.3,-36.0,18.7,1.4,-35.4,5.73,2.00,-20.8,24.8